This demonstration page uses our WeatherBlox Daily Observations layout. Learn more.

Left ArrowRight Arrow

Hourly Observations for September 2, 2017

Temp ( °F °C ) Dew Point ( °F °C ) Humidity (%) Winds ( mph kmh ) Pressure ( in mb ) Visibility ( mi km ) Precip ( " mm )
12:51 am 00:51 Clear 71 21.7 36 2.2 28 28 SE 5 7 29.85 1011 10 16 N/A
1:51 am 01:51 Clear 69 20.6 38 3.3 32 32 ESE 7 11 29.83 1010 10 16 N/A
2:51 am 02:51 Clear 72 22.2 37 2.8 28 28 SSE 9 15 29.83 1010 10 16 N/A
3:51 am 03:51 Clear 72 22.2 36 2.2 27 27 SE 9 15 29.84 1010 10 16 N/A
4:51 am 04:51 Clear 74 23.3 39 3.9 28 28 ESE 12 19 29.85 1011 10 16 N/A
5:51 am 05:51 Clear 72 22.2 40 4.4 31 31 ESE 10 17 29.88 1012 10 16 N/A
6:51 am 06:51 Sunny 74 23.3 41 5 31 31 SE 12 19 29.90 1013 10 16 N/A
7:51 am 07:51 Sunny 77 25 43 6.1 30 30 SE 12 19 29.93 1014 10 16 N/A
8:51 am 08:51 Sunny 83 28.3 44 6.7 25 25 ESE 8 13 29.95 1014 10 16 N/A
9:51 am 09:51 Sunny 86 30 41 5 20 20 ESE 6 9 29.95 1014 10 16 N/A
10:51 am 10:51 Sunny 89 31.7 43 6.1 20 20 SE 10 17 29.95 1014 10 16 N/A
11:51 am 11:51 Sunny 91 32.8 43 6.1 19 19 S 7 11 29.93 1014 10 16 N/A
12:51 pm 12:51 Sunny 91 32.8 46 7.8 21 21 S 6 9 29.93 1014 10 16 N/A
1:51 pm 13:51 Sunny 92 33.3 48 8.9 22 22 SSW 8 13 29.91 1013 10 16 N/A
2:51 pm 14:51 Sunny 94 34.4 46 7.8 19 19 SSE 13 20 29.88 1012 10 16 N/A
3:51 pm 15:51 Sunny 94 34.4 42 5.6 17 17 ESE 12 19 29.88 1012 10 16 N/A
4:51 pm 16:51 Sunny 93 33.9 42 5.6 17 17 SSE 10 17 29.87 1012 10 16 N/A
5:51 pm 17:51 Sunny 92 33.3 42 5.6 18 18 SE 9 15 29.87 1012 10 16 N/A
6:51 pm 18:51 Clear 89 31.7 43 6.1 20 20 SE 7 11 29.88 1012 10 16 N/A
7:51 pm 19:51 Clear 84 28.9 48 8.9 29 29 SE 3 6 29.90 1012 10 16 N/A
8:51 pm 20:51 Clear 80 26.7 46 7.8 30 30 ESE 5 7 29.91 1013 10 16 N/A
9:51 pm 21:51 Clear 80 26.7 45 7.2 29 29 ESE 6 9 29.93 1014 10 16 N/A
10:51 pm 22:51 Clear 78 25.6 45 7.2 31 31 E 3 6 29.93 1013 10 16 N/A
11:51 pm 23:51 Clear 77 25 44 6.7 31 31 SSE 6 9 29.93 1014 10 16 N/A

Powered by AerisWeather